Regional Weather Roundup
Issued by NWS Memphis, TN

Home | Current Version | Previous Version | Text Only | Print | Product List | Glossary On
Versions: 1 2 3 4 5 6 7 8 9 10 11 12 13 14 15 16 17 18 19 20 21 22 23 24 25 26 27 28 29 30 31 32 33 34 35 36 37 38 39 40 41 42 43 44 45 46 47 48 49 50
000
ASUS44 KMEG 171010
RWRMEG
MEMPHIS CWA HOURLY WEATHER ROUNDUP
NATIONAL WEATHER SERVICE MEMPHIS TN
500 AM CDT THU APR 17 2014

...WEST TENNESSEE...

CITY           SKY/WX    TMP DP  RH WIND       PRES   REMARKS
MEMPHIS INTL   CLEAR     46  33  60 SE3       30.20S
NWS MEMPHIS      N/A     40 N/A N/A MISG        N/A
JACKSON        CLEAR     37  33  85 CALM      30.23R
LEXINGTON      CLEAR     43  34  70 CALM      30.24R
SILERTON         N/A     42  34  74 E1          N/A
SAVANNAH       CLEAR     34  34 100 CALM      30.25R
DYERSBURG      CLEAR     41  27  56 CALM      30.24R
UNION CITY     CLEAR     37  34  87 CALM      30.22R
PARIS          CLEAR     41  31  68 S6        30.24R


...EASTERN ARKANSAS...

CITY           SKY/WX    TMP DP  RH WIND       PRES   REMARKS
JONESBORO      CLEAR     37  35  92 CALM      30.20R
WEST MEMPHIS   CLEAR     42  38  85 SE3       30.19F
BATESVILLE     CLEAR     43  34  70 CALM      30.18R
NEWPORT        CLEAR     42  38  86 CALM      30.21R
WALNUT RIDGE   CLEAR     41  36  81 CALM      30.20S
BLYTHEVILLE    CLEAR     43  34  70 SE3       30.22R
SEARCY         CLEAR     37  36  96 CALM      30.20R
STUTTGART      CLEAR     45  37  76 SE9       30.19S
PINE BLUFF     CLEAR     41  39  93 CALM      30.19R
MONTICELLO     CLEAR     39  36  89 CALM      30.18S


...NORTH MISSISSIPPI...

CITY           SKY/WX    TMP DP  RH WIND       PRES   REMARKS
TUPELO         CLEAR     45  37  73 S5        30.24R
OXFORD         CLEAR     43  36  75 SE3       30.24R
OLIVE BRANCH   CLEAR     43  34  70 CALM      30.22S
TUNICA         CLEAR     39  37  93 CALM      30.22S
CLARKSDALE       N/A     45  39  81 CALM      30.21S
CORINTH        CLEAR     39  36  87 CALM      30.25R
GRENADA        CLEAR     37  36  93 CALM      30.22R
GREENWOOD      CLEAR     42  38  85 VRB5      30.20R
COLUMBUS       CLEAR     42  37  82 SE7       30.25R
STARKVILLE     FAIR      45  37  76 SE3       30.23R
GOLDEN TRIANGL CLEAR     48  36  61 SE14      30.26S


...SOUTHEAST MISSOURI...

CITY           SKY/WX    TMP DP  RH WIND       PRES   REMARKS
WEST PLAINS    CLEAR     41  30  65 S5        30.17R
POPLAR BLUFF   CLEAR     37  32  82 CALM      30.19R
CAPE GIRARDEAU CLEAR     36  33  89 E5        30.21R WCI  32


...NORTHWEST ALABAMA...

CITY           SKY/WX    TMP DP  RH WIND       PRES   REMARKS
MUSCLE SHOALS  CLEAR     45  34  65 SE7       30.28S


...MIDDLE TENNESSEE...

CITY           SKY/WX    TMP DP  RH WIND       PRES   REMARKS
NASHVILLE      PTCLDY    47  32  56 S7        30.29R
CLARKSVILLE    CLEAR     42  32  67 SE8       30.26R
DICKSON        CLEAR     48  30  49 S9        30.25R
COLUMBIA       CLEAR     48  36  61 SE8       30.26R
LEWISBURG      PTCLDY    47  31  54 SE7       30.29R


...WESTERN KENTUCKY...

CITY           SKY/WX    TMP DP  RH WIND       PRES   REMARKS
PADUCAH        CLEAR     39  32  76 CALM      30.21R
FORT CAMPBELL  CLEAR     46  32  57 SE7       30.26R


...CENTRAL ARKANSAS...

CITY           SKY/WX    TMP DP  RH WIND       PRES   REMARKS
LITTLE ROCK    PTCLDY    41  36  82 CALM      30.19R


SKY/WX REPORTED AS FAIR MEANS FEW OR NO CLOUDS BELOW
12 THOUSAND FEET.




USA.gov is the U.S. government's official web portal to all federal, state and local government web resources and services.